Simultaneous Nadir Overpasses (SNOs) Predictions

Prediction of SNOs between FY3D and METOP-C Satellite Orbit:

Table of predicted SNOs for the next 14.0 days since TLE Epoch: 4/16/2023
Index Date (FY3D) Time (FY3D) Lat,Lon (FY3D) SZA (FY3D ) Date (METOP-C) Time (METOP-C) Lat,Lon (METOP-C) SZA (METOP-C ) Distance(km) Time Diff (sec)
1 04/29/2023 09:32:26 -75.27,-148.27 119.21 04/29/2023 09:33:33 -75.25,-145.53 119.27 77.65 67
2 04/29/2023 10:23:08 75.06, 19.66 60.56 04/29/2023 10:24:18 75.04, 21.21 60.52 44.46 70
3 04/29/2023 11:13:50 -74.92,-172.61 119.60 04/29/2023 11:15:03 -74.85,-172.02 119.69 18.79 73
4 04/29/2023 12:04:33 74.75, -4.84 60.22 04/29/2023 12:05:45 74.78, -4.87 60.24 3.51 72
5 04/29/2023 12:55:18 -74.75, 162.47 119.80 04/29/2023 12:56:26 -74.78, 162.45 119.78 2.86 68
6 04/29/2023 13:46:05 74.78, -30.29 60.22 04/29/2023 13:47:07 74.76, -30.26 60.20 2.10 62
7 04/29/2023 14:36:50 -74.78, 137.02 119.79 04/29/2023 14:37:48 -74.76, 137.05 119.82 2.69 58
8 04/29/2023 15:27:36 74.76, -55.62 60.18 04/29/2023 15:28:29 74.74, -55.66 60.16 2.27 53
9 04/29/2023 16:18:21 -74.76, 111.70 119.84 04/29/2023 16:19:10 -74.74, 111.65 119.86 2.77 49
10 04/29/2023 17:09:07 74.74, -80.94 60.14 04/29/2023 17:09:50 74.77, -80.92 60.16 3.55 43
11 04/29/2023 17:59:52 -74.74, 86.38 119.88 04/29/2023 18:00:31 -74.76, 86.39 119.86 2.94 39
12 04/29/2023 18:50:39 74.76,-106.39 60.14 04/29/2023 18:51:12 74.75,-106.32 60.12 2.77 33
13 04/29/2023 19:41:24 -74.76, 60.92 119.87 04/29/2023 19:41:53 -74.74, 60.99 119.90 3.19 29
14 04/29/2023 20:32:10 74.74,-131.71 60.10 04/29/2023 20:32:34 74.73,-131.72 60.08 1.78 24
15 04/29/2023 21:22:55 -74.74, 35.60 119.92 04/29/2023 21:23:15 -74.72, 35.60 119.94 2.34 20
16 04/29/2023 22:13:41 74.72,-157.04 60.06 04/29/2023 22:13:56 74.71,-157.11 60.04 2.89 15
17 04/29/2023 23:04:26 -74.72, 10.28 119.96 04/29/2023 23:04:37 -74.70, 10.20 119.98 3.22 11
18 04/29/2023 23:55:12 74.70, 177.64 60.01 04/29/2023 23:55:17 74.73, 177.62 60.04 3.68 5
19 04/30/2023 00:45:57 -74.70, -15.04 120.00 04/30/2023 00:45:58 -74.73, -15.06 119.98 3.14 1
20 04/30/2023 01:36:44 74.73, 152.19 60.02 04/30/2023 01:36:39 74.71, 152.23 60.00 2.04 5



Historial Predications of SNOs between FY3D and METOP-C
